Location: Mountain View
(37.3861°N, 122.0839°W)
Time: 08:52:34
(UTC-07:00)

ISS - Visible Passes

Search period start: 23 October 2018 00:00
Search period end: 02 November 2018 00:00
Orbit: 402 x 408 km, 51.6° (Epoch: 24 October)

Date Brightness Start Highest point End Pass type
(mag) Time Alt. Az. Time Alt. Az. Time Alt. Az.
23 Oct -0.6 06:45:29 10° SSE 06:47:03 13° SE 06:48:37 10° E visible
25 Oct -2.1 06:36:17 10° SSW 06:39:16 33° SE 06:42:17 10° ENE visible
26 Oct -1.0 05:45:14 10° S 05:47:25 17° SE 05:49:36 10° E visible
27 Oct -3.9 06:28:41 13° SW 06:31:35 85° NW 06:34:52 10° NE visible
28 Oct -2.9 05:39:38 44° SE 05:39:38 44° SE 05:42:45 10° ENE visible
29 Oct -3.0 06:23:04 27° WNW 06:24:01 33° NNW 06:27:03 10° NNE visible
30 Oct -1.9 05:33:35 25° NE 05:33:35 25° NE 05:35:09 10° NE visible
31 Oct -2.0 06:16:39 18° NNW 06:16:39 18° NNW 06:18:54 10° NNE visible
01 Nov -0.8 05:26:55 11° NNE 05:26:55 11° NNE 05:27:10 10° NNE visible
